STARLINK-3300 (50841 NORAD) Tracking and Keplerian Element Data

This shows tracking and keplerian element data for the satellite.

Feedback or suggestion? Click here.




ElementValue
Catalog50841
NameSTARLINK-3300
Epoch Orbit382
Epoch Day22.91667824
Epoch Year2022
RAAN119.7499
Inclination53.2175
Eccentricity0.0001089
Argument of Perigee65.309
Mean Anonmoly254.8809
Mean Motion15.75373636
Decay Rate-0.00821215
L11 50841U 22001AQ 22022.91667824 -.00821215 00000+0 -58603-2 0 9998
L22 50841 53.2175 119.7499 0001089 65.3090 254.8809 15.75373636 3829

Live tracking and technical data element details for STARLINK-3300 (NORAD 50841). STARLINK-3300 can be tracked NOW for your location showing map with azimuth and elevation plus other details from your city location.

Track the satellite on the map from your city or location and see movement details for azimuth, elevation, latitude, longitude, range, height, and movement on the map or in text.







IsCatalogInMostPopularTable: catalog: 50841, numindb: 3
Update: records affected: 1



GetName: 50841 STARLINK-3300

Hit Count: updated at: Mon, 24 Jan 2022 01:16:49 GMT